MPEC 2016-C108: 2016 CB136
The following Minor Planet Electronic Circular may be linked-to from your own Web pages, but must not otherwise be redistributed electronically.A form allowing access to any MPEC is at the bottom of this page.


M.P.E.C. 2016-C108 Issued 2016 Feb. 9, 16:34 UT The Minor Planet Electronic Circulars contain information on unusual minor planets and routine data on comets. They are published on behalf of Division F of the International Astronomical Union by the Minor Planet Center, Smithsonian Astrophysical Observatory, Cambridge, MA 02138, U.S.A. Prepared using the Tamkin Foundation Computer Network MPC@CFA.HARVARD.EDU URL https://www.minorplanetcenter.net/ ISSN 1523-6714 2016 CB136 Observations: K16CD6B* C2016 02 06.42054 10 21 49.93 +51 13 53.0 21.4 VqEC108G96 K16CD6B C2016 02 06.42670 10 21 49.19 +51 13 54.9 21.2 VqEC108G96 K16CD6B C2016 02 06.43906 10 21 47.64 +51 13 58.3 21.7 VqEC108G96 K16CD6B C2016 02 06.47607 10 21 43.24 +51 14 08.0 21.0 VqEC108G96 K16CD6B C2016 02 06.48248 10 21 42.35 +51 14 10.1 21.8 VqEC108G96 K16CD6B C2016 02 06.48890 10 21 41.55 +51 14 12.0 21.7 VqEC108G96 K16CD6B C2016 02 06.49532 10 21 40.82 +51 14 13.8 21.7 VqEC108G96 K16CD6B C2016 02 06.53838 10 21 35.40 +51 14 24.8 21.6 VqEC108I52 K16CD6B C2016 02 06.54833 10 21 34.49 +51 14 27.9 22.4 VqEC108I52 K16CD6B C2016 02 06.55629 10 21 33.44 +51 14 29.5 qEC108I52 K16CD6B C2016 02 07.33340 10 20 01.37 +51 18 09.8 21.3 VqEC108G96 K16CD6B C2016 02 07.33876 10 20 00.75 +51 18 10.9 20.8 VqEC108G96 K16CD6B C2016 02 07.34414 10 20 00.16 +51 18 12.7 21.3 VqEC108G96 K16CD6B C2016 02 07.34952 10 19 59.40 +51 18 13.8 21.3 VqEC108G96 K16CD6B C2016 02 08.37516 10 17 56.52 +51 22 25.6 21.8 VqEC108G96 K16CD6B C2016 02 08.37600 10 17 56.37 +51 22 24.9 21.9 VqEC108G96 K16CD6B C2016 02 08.38109 10 17 55.80 +51 22 26.4 22.2 VqEC108G96 K16CD6B C2016 02 08.38193 10 17 55.67 +51 22 26.8 22.0 VqEC108G96 K16CD6B C2016 02 08.38662 10 17 55.09 +51 22 28.4 21.9 VqEC108G96 K16CD6B C2016 02 08.38747 10 17 55.03 +51 22 28.2 22.5 VqEC108G96 K16CD6B C2016 02 08.39203 10 17 54.39 +51 22 29.0 22.4 VqEC108G96 K16CD6B C2016 02 08.39288 10 17 54.28 +51 22 28.9 21.5 VqEC108G96 K16CD6B C2016 02 09.37957 10 15 56.08 +51 25 55.7 22.7 VqEC108G96 K16CD6B C2016 02 09.38596 10 15 55.26 +51 25 57.3 22.2 VqEC108G96 K16CD6B C2016 02 09.39235 10 15 54.51 +51 25 58.7 21.7 VqEC108G96 K16CD6B C2016 02 09.39873 10 15 53.58 +51 26 00.0 22.0 VqEC108G96 Observer details: G96 Mt. Lemmon Survey. Observers D. C. Fuls, A. D. Grauer. Measurers E. J. Christensen, D. C. Fuls, A. R. Gibbs, A. D. Grauer, J. A. Johnson, R. A. Kowalski, S. M. Larson, G. J. Leonard, R. G. Matheny, R. L. Seaman, F. C. Shelly. 1.5-m reflector + CCD. I52 Steward Observatory, Mt. Lemmon Station. Observer A. R. Gibbs. Measurers E. J. Christensen, D. C. Fuls, A. R. Gibbs, A. D. Grauer, J. A. Johnson, R. A. Kowalski, S. M. Larson, G. J. Leonard, R. G. Matheny, R. L. Seaman, F. C. Shelly. 1.0-m reflector + CCD. Orbital elements: 2016 CB136 Earth MOID = 0.1691 AU Epoch 2016 Jan. 13.0 TT = JDT 2457400.5 MPC M 48.26614 (2000.0) P Q n 0.29343527 Peri. 333.10526 +0.89943557 -0.33934663 a 2.2428205 Node 49.56031 +0.43691485 +0.68227242 e 0.4952131 Incl. 21.21595 +0.01100339 +0.64757100 P 3.36 H 18.7 G 0.15 U 8 Residuals in seconds of arc 160206 G96 0.2- 0.2+ 160206 I52 0.2+ 0.5- 160208 G96 0.1- 0.4+ 160206 G96 0.0 0.3+ 160207 G96 0.2- 0.6+ 160208 G96 0.3+ 0.0 160206 G96 0.3- 0.2+ 160207 G96 0.2+ 0.3+ 160208 G96 0.4- 0.2- 160206 G96 0.9+ 0.4- 160207 G96 0.9+ 0.6+ 160208 G96 0.4- 0.5- 160206 G96 0.1- 0.1- 160207 G96 0.0 0.3+ 160209 G96 0.4+ 0.3- 160206 G96 0.3- 0.1+ 160208 G96 0.0 0.1+ 160209 G96 0.1+ 0.1+ 160206 G96 0.2+ 0.1+ 160208 G96 0.4- 0.8- 160209 G96 0.5+ 0.3+ 160206 I52 1.7- 0.5- 160208 G96 0.2+ 0.4- 160209 G96 0.8- 0.5+ 160206 I52 1.1+ 0.0 160208 G96 0.1- 0.2- Ephemeris: 2016 CB136 a,e,i = 2.24, 0.50, 21 q = 1.1321 Date TT R. A. (2000) Decl. Delta r Elong. Phase V 2016 01 10 11 02 34.7 +45 59 55 1.1701 1.9509 129.7 22.8 21.6 ... 2016 01 25 10 44 37.0 +49 29 58 1.1966 2.0443 139.0 18.4 21.6 ... 2016 02 02 10 30 27.2 +50 46 21 1.2285 2.0930 141.7 17.0 21.7 ... 2016 02 08 10 18 41.6 +51 20 55 1.2614 2.1290 142.3 16.5 21.7 2016 02 09 10 16 41.8 +51 24 38 1.2677 2.1349 142.3 16.4 21.7 2016 02 10 10 14 41.8 +51 27 46 1.2741 2.1409 142.2 16.4 21.8 ... 2016 02 16 10 02 52.1 +51 34 10 1.3174 2.1762 141.1 16.6 21.9 ... 2016 02 24 09 48 23.3 +51 11 52 1.3870 2.2226 137.9 17.4 22.1 ... 2016 03 10 09 28 31.3 +49 15 45 1.5506 2.3071 128.8 19.6 22.5 A. U. Tomatic (C) Copyright 2016 MPC M.P.E.C. 2016-C108


Enter an MPEC number in one of the following forms:
- 1997-B01 (the full form)
- J97B01 (the packed version of the full form)
- B01 (the abbreviated form)